• In Deutschland
  • Länderverzeichnis
  • Für 7 Tage
  • Wassertemperatur
  • Satellitenkarten
  • Wetterkarte
  • Widgets
  • user-avatar
    Anmelden

    Stündliche Wetter Lindenfels

    Heute, 23 Juli, Montag

    Zeit Temperatur Niederschläge Wind Luftdruck Luftfeuchtigkeit
    00:00 +18°C° 0 mm 0 m/S 739 mmHg 81%
    01:00 +17°C° 0 mm 0 m/S 739 mmHg 83%
    02:00 +17°C° 0,1 mm 0 m/S 739 mmHg 83%
    03:00 +17°C° 0,1 mm 0 m/S 739 mmHg 84%
    04:00 +16°C° 0,1 mm 0 m/S 739 mmHg 85%
    05:00 +17°C° 0 mm 0 m/S 739 mmHg 82%
    06:00 +18°C° 0 mm 0 m/S 740 mmHg 80%
    07:00 +19°C° 0 mm 0 m/S 740 mmHg 78%
    08:00 +23°C° 0,2 mm 1 m/S 740 mmHg 72%
    09:00 +24°C° 0,2 mm 1 m/S 740 mmHg 66%
    10:00 +26°C° 0,2 mm 1 m/S 740 mmHg 59%
    11:00 +27°C° 0,2 mm 1 m/S 740 mmHg 55%
    12:00 +28°C° 0,2 mm 1 m/S 740 mmHg 50%
    13:00 +29°C° 0,2 mm 2 m/S 740 mmHg 45%
    14:00 +29°C° 0 mm 2 m/S 740 mmHg 44%
    15:00 +29°C° 0 mm 2 m/S 740 mmHg 43%
    16:00 +30°C° 0 mm 2 m/S 740 mmHg 42%
    17:00 +29°C° 0 mm 2 m/S 740 mmHg 46%
    18:00 +28°C° 0 mm 2 m/S 739 mmHg 50%
    19:00 +27°C° 0 mm 1 m/S 739 mmHg 54%
    20:00 +26°C° 0 mm 1 m/S 740 mmHg 58%
    21:00 +24°C° 0 mm 1 m/S 740 mmHg 61%
    22:00 +23°C° 0 mm 1 m/S 740 mmHg 65%
    23:00 +22°C° 0 mm 1 m/S 740 mmHg 68%

    Morgen, 24 Juli, Dienstag

    Zeit Temperatur Niederschläge Wind Luftdruck Luftfeuchtigkeit
    00:00 +22°C° 0 mm 1 m/S 740 mmHg 71%
    01:00 +21°C° 0 mm 1 m/S 740 mmHg 73%
    02:00 +21°C° 0 mm 1 m/S 739 mmHg 76%
    03:00 +20°C° 0 mm 1 m/S 739 mmHg 78%
    04:00 +20°C° 0 mm 1 m/S 739 mmHg 80%
    05:00 +21°C° 0 mm 1 m/S 739 mmHg 78%
    06:00 +22°C° 0 mm 1 m/S 739 mmHg 75%
    07:00 +22°C° 0 mm 1 m/S 739 mmHg 73%
    08:00 +24°C° 0 mm 1 m/S 739 mmHg 67%
    09:00 +26°C° 0 mm 2 m/S 739 mmHg 61%
    10:00 +28°C° 0 mm 2 m/S 739 mmHg 54%
    11:00 +29°C° 0 mm 2 m/S 739 mmHg 51%
    12:00 +29°C° 0 mm 2 m/S 739 mmHg 47%
    13:00 +30°C° 0 mm 2 m/S 738 mmHg 43%
    14:00 +31°C° 0 mm 2 m/S 738 mmHg 43%
    15:00 +31°C° 0 mm 2 m/S 738 mmHg 42%
    16:00 +31°C° 0 mm 2 m/S 737 mmHg 41%
    17:00 +30°C° 0 mm 2 m/S 737 mmHg 45%
    18:00 +29°C° 0 mm 2 m/S 737 mmHg 49%
    19:00 +28°C° 0 mm 1 m/S 737 mmHg 53%
    20:00 +27°C° 0 mm 1 m/S 737 mmHg 56%
    21:00 +25°C° 0 mm 1 m/S 738 mmHg 59%
    22:00 +24°C° 0 mm 1 m/S 738 mmHg 62%
    23:00 +23°C° 0 mm 1 m/S 738 mmHg 65%

    übermorgen, 25 Juli, Mittwoch

    Zeit Temperatur Niederschläge Wind Luftdruck Luftfeuchtigkeit
    00:00 +23°C° 0 mm 1 m/S 738 mmHg 68%
    01:00 +22°C° 0 mm 1 m/S 738 mmHg 71%
    02:00 +22°C° 0 mm 1 m/S 738 mmHg 73%
    03:00 +21°C° 0 mm 1 m/S 738 mmHg 75%
    04:00 +21°C° 0 mm 1 m/S 738 mmHg 77%
    05:00 +21°C° 0 mm 1 m/S 738 mmHg 75%
    06:00 +22°C° 0 mm 1 m/S 738 mmHg 72%
    07:00 +23°C° 0 mm 1 m/S 738 mmHg 70%
    08:00 +25°C° 0 mm 1 m/S 739 mmHg 63%
    09:00 +27°C° 0 mm 1 m/S 739 mmHg 57%
    10:00 +29°C° 0 mm 2 m/S 739 mmHg 50%
    11:00 +30°C° 0 mm 2 m/S 739 mmHg 47%
    12:00 +31°C° 0 mm 2 m/S 738 mmHg 43%
    13:00 +32°C° 0 mm 2 m/S 738 mmHg 40%
    14:00 +32°C° 0 mm 2 m/S 738 mmHg 40%
    15:00 +32°C° 0 mm 2 m/S 738 mmHg 39%
    16:00 +32°C° 0 mm 2 m/S 738 mmHg 39%
    17:00 +31°C° 0 mm 2 m/S 738 mmHg 44%
    18:00 +30°C° 0 mm 2 m/S 738 mmHg 48%
    19:00 +29°C° 0 mm 2 m/S 738 mmHg 53%
    20:00 +28°C° 0 mm 2 m/S 738 mmHg 57%
    21:00 +27°C° 0 mm 1 m/S 738 mmHg 60%
    22:00 +25°C° 0 mm 1 m/S 739 mmHg 64%
    23:00 +25°C° 0 mm 1 m/S 739 mmHg 67%

    26 Juli, Donnerstag

    Zeit Temperatur Niederschläge Wind Luftdruck Luftfeuchtigkeit
    00:00 +24°C° 0 mm 1 m/S 739 mmHg 69%
    01:00 +23°C° 0 mm 1 m/S 739 mmHg 72%
    02:00 +23°C° 0 mm 1 m/S 739 mmHg 74%
    03:00 +22°C° 0 mm 1 m/S 739 mmHg 76%
    04:00 +22°C° 0 mm 1 m/S 739 mmHg 78%
    05:00 +23°C° 0 mm 1 m/S 739 mmHg 76%
    06:00 +23°C° 0 mm 1 m/S 739 mmHg 74%
    07:00 +24°C° 0 mm 1 m/S 739 mmHg 72%
    08:00 +26°C° 0 mm 2 m/S 739 mmHg 65%
    09:00 +28°C° 0 mm 2 m/S 739 mmHg 58%
    10:00 +29°C° 0 mm 2 m/S 740 mmHg 52%
    11:00 +30°C° 0 mm 2 m/S 739 mmHg 48%
    12:00 +31°C° 0 mm 2 m/S 739 mmHg 44%
    13:00 +33°C° 0 mm 3 m/S 739 mmHg 40%
    14:00 +34°C° 0 mm 3 m/S 739 mmHg 39%
    15:00 +34°C° 0 mm 3 m/S 739 mmHg 39%
    16:00 +34°C° 0 mm 3 m/S 738 mmHg 38%
    17:00 +33°C° 0 mm 3 m/S 738 mmHg 43%
    18:00 +31°C° 0 mm 3 m/S 738 mmHg 48%
    19:00 +30°C° 0 mm 2 m/S 738 mmHg 52%
    20:00 +28°C° 0 mm 2 m/S 738 mmHg 55%
    21:00 +27°C° 0 mm 2 m/S 739 mmHg 58%
    22:00 +25°C° 0 mm 2 m/S 739 mmHg 61%
    23:00 +24°C° 0 mm 2 m/S 739 mmHg 62%

    27 Juli, Freitag

    Zeit Temperatur Niederschläge Wind Luftdruck Luftfeuchtigkeit
    00:00 +24°C° 0 mm 1 m/S 739 mmHg 64%
    01:00 +23°C° 0 mm 1 m/S 739 mmHg 65%
    02:00 +22°C° 0 mm 1 m/S 739 mmHg 67%
    03:00 +22°C° 0 mm 1 m/S 738 mmHg 69%
    04:00 +21°C° 0 mm 1 m/S 738 mmHg 71%
    05:00 +22°C° 0 mm 1 m/S 738 mmHg 69%
    06:00 +23°C° 0 mm 1 m/S 738 mmHg 67%
    07:00 +24°C° 0 mm 1 m/S 739 mmHg 65%
    08:00 +26°C° 0 mm 1 m/S 739 mmHg 59%
    09:00 +28°C° 0 mm 1 m/S 739 mmHg 53%
    10:00 +29°C° 0 mm 1 m/S 739 mmHg 47%
    11:00 +31°C° 0 mm 1 m/S 738 mmHg 44%
    12:00 +32°C° 0 mm 1 m/S 738 mmHg 40%
    13:00 +33°C° 0 mm 1 m/S 738 mmHg 36%
    14:00 +34°C° 0 mm 1 m/S 738 mmHg 35%
    15:00 +34°C° 0 mm 1 m/S 737 mmHg 34%
    16:00 +32°C° 0 mm 0 m/S 737 mmHg 34%
    17:00 +31°C° 0 mm 0 m/S 737 mmHg 38%
    18:00 +31°C° 0 mm 1 m/S 737 mmHg 42%
    19:00 +30°C° 0 mm 1 m/S 737 mmHg 46%
    20:00 +29°C° 0 mm 1 m/S 737 mmHg 48%
    21:00 +27°C° 0 mm 1 m/S 737 mmHg 51%
    22:00 +26°C° 0 mm 1 m/S 737 mmHg 53%
    23:00 +25°C° 0 mm 1 m/S 737 mmHg 56%

    28 Juli, Samstag

    Zeit Temperatur Niederschläge Wind Luftdruck Luftfeuchtigkeit
    00:00 +25°C° 0 mm 1 m/S 737 mmHg 59%
    01:00 +22°C° 0 mm 0 m/S 737 mmHg 61%
    02:00 +21°C° 0 mm 0 m/S 737 mmHg 63%
    03:00 +23°C° 0 mm 1 m/S 737 mmHg 65%
    04:00 +23°C° 0 mm 1 m/S 737 mmHg 66%
    05:00 +23°C° 0 mm 1 m/S 737 mmHg 65%
    06:00 +24°C° 0 mm 1 m/S 738 mmHg 63%
    07:00 +25°C° 0 mm 1 m/S 738 mmHg 61%
    08:00 +27°C° 0 mm 1 m/S 738 mmHg 56%
    09:00 +29°C° 0 mm 1 m/S 738 mmHg 50%
    10:00 +31°C° 0 mm 1 m/S 738 mmHg 44%
    11:00 +31°C° 0 mm 1 m/S 738 mmHg 42%
    12:00 +32°C° 0 mm 2 m/S 738 mmHg 39%
    13:00 +34°C° 0 mm 2 m/S 738 mmHg 36%
    14:00 +34°C° 0 mm 2 m/S 738 mmHg 39%
    15:00 +32°C° 0 mm 2 m/S 738 mmHg 42%
    16:00 +31°C° 0 mm 2 m/S 738 mmHg 44%
    17:00 +31°C° 0 mm 2 m/S 738 mmHg 48%
    18:00 +30°C° 0 mm 2 m/S 738 mmHg 51%
    19:00 +29°C° 0 mm 2 m/S 738 mmHg 55%
    20:00 +28°C° 0,2 mm 2 m/S 739 mmHg 60%
    21:00 +26°C° 0,2 mm 2 m/S 739 mmHg 64%
    22:00 +25°C° 0,2 mm 2 m/S 739 mmHg 69%
    23:00 +24°C° 0,5 mm 1 m/S 739 mmHg 71%
    Mehr zeigen